Location: Warszawa
(52.2500°N, 21.0000°E)
Time: 23:40:42
(UTC+01:00)

A-11 Canister half - Pass Details

Date: 10 February 2023
Orbit: 1526 x 1682 km, 47.3° (Epoch: 22 March)

Event Time Altitude Azimuth Distance (km) Brightness Sun altitude
Exits shadow 01:32:03 12° 114° (ESE) 3,538 10.9 -47.1°
Drops below altitude 10° 01:33:51 10° 103° (ESE) 3,693 11.2 -47.0°
Sets 01:39:19 0° 77° (ENE) 4,686 12.1 -46.4°
